Theta_e
303 304 304 304 304 303 303 303 302 302 303 302 300 300 301 301 294 292 300 302 300 302 305 306 307 308 309 309 310 312 313 313 312 312 311 312 312 313 314 317 316 317 319 322 325 327 330 330 330 330 327 328 330 332 333 334 335 336 337 336 335 334 333 332 333 334 336 336 337 336 335 335 336 336 335 336 335 334 332 332 331 330 330 329 327 326 326
302 303 303 304 301 302 303 302 302 303 302 302 302 302 303 302 301 302 302 302 302 304 306 307 309 310 310 310 312 313 312 311 311 311 311 312 312 313 313 315 316 317 317 318 322 327 331 328 328 327 327 327 328 329 331 333 334 335 336 335 334 334 333 331 333 333 334 335 334 334 333 332 333 335 335 335 333 331 332 331 332 331 330 329 328 326 325
299 302 303 303 302 301 300 302 302 302 303 303 303 303 303 304 302 303 303 302 301 307 310 309 311 312 311 311 309 310 311 311 312 312 312 312 313 313 314 315 316 317 318 318 321 325 329 328 327 326 326 326 326 328 330 332 332 334 334 334 333 333 333 333 332 332 332 333 333 333 332 332 332 332 333 334 331 329 328 327 328 329 330 329 328 326 325
295 301 300 301 301 301 300 300 300 301 301 299 301 299 303 302 300 302 301 299 299 306 309 310 310 310 309 308 309 310 311 312 312 311 311 312 313 313 314 315 316 317 318 319 320 323 324 326 328 325 326 325 326 327 330 331 332 333 333 333 332 332 333 333 332 330 330 331 332 332 332 331 331 331 333 331 327 326 328 329 330 329 329 328 327 326 325
292 299 300 299 299 298 295 294 300 302 302 302 303 304 305 304 304 299 295 298 304 306 309 307 308 309 308 309 309 310 311 312 311 312 312 312 313 314 315 316 317 318 317 318 321 324 323 323 324 325 326 323 324 327 330 332 333 332 332 332 332 332 332 332 331 331 329 329 330 331 331 331 331 332 331 330 328 327 327 328 328 327 328 328 327 326 325
292 298 298 299 293 286 289 302 306 304 302 302 301 300 303 305 305 302 305 304 307 307 308 308 308 308 309 310 312 313 313 312 313 313 313 313 315 315 316 316 316 317 318 319 320 322 324 325 324 325 325 323 326 330 331 332 333 332 330 331 331 331 331 331 331 332 331 329 329 330 331 331 330 329 330 329 330 328 328 326 325 326 327 328 328 325 323
291 296 296 290 284 287 301 305 306 306 305 304 302 302 304 305 306 306 304 305 306 309 309 310 310 311 313 313 312 313 314 313 313 313 313 314 314 314 315 315 316 317 317 319 321 322 322 323 327 329 326 327 331 330 330 331 331 331 330 330 330 331 331 331 331 332 331 331 330 330 331 331 330 329 328 329 329 328 327 325 326 325 326 327 327 325 324
293 292 290 282 285 300 304 304 306 309 306 305 304 301 303 305 305 307 305 306 308 309 309 311 312 312 313 313 314 315 315 315 315 314 314 315 315 314 315 315 317 317 317 318 320 323 324 324 324 326 328 329 329 328 329 329 330 331 330 329 329 331 330 331 331 331 331 331 331 331 330 330 330 329 329 329 328 327 325 325 327 328 328 328 325 325 325
288 289 289 289 297 296 299 299 301 302 300 301 299 292 298 307 308 308 307 307 308 309 310 311 311 312 311 309 310 314 314 314 315 315 315 316 316 316 316 316 317 319 319 318 321 323 324 324 323 326 328 329 328 327 327 328 328 330 330 328 328 330 331 331 331 331 331 330 330 330 330 329 329 329 329 328 328 329 327 326 327 326 330 327 325 326 327
293 289 287 289 288 285 291 301 308 311 310 310 308 302 297 308 309 309 309 307 308 309 309 310 311 312 306 303 307 312 313 315 315 316 317 317 317 317 316 316 316 317 318 318 320 320 321 322 323 324 327 328 327 326 326 326 327 328 328 328 329 329 330 331 331 331 331 330 330 330 330 329 329 330 330 329 328 328 328 327 327 329 325 325 325 325 324
291 289 286 286 284 288 298 303 307 309 309 309 309 300 294 305 309 308 308 307 308 309 308 309 310 306 301 302 306 312 313 315 316 315 316 316 317 317 316 315 314 315 317 317 318 319 320 320 322 325 327 327 325 325 326 326 327 328 328 328 328 328 330 331 331 331 331 330 330 330 329 329 330 329 329 329 330 330 330 330 329 330 328 325 322 323 324
290 289 286 285 289 289 299 304 305 307 310 310 304 287 289 305 308 308 309 307 308 309 309 310 308 304 300 302 307 313 314 315 316 316 315 315 315 316 317 316 315 315 316 317 316 318 317 319 323 325 327 326 326 325 326 327 327 327 328 328 328 328 330 331 331 331 332 331 330 330 329 330 331 330 330 330 330 329 329 328 328 327 324 323 321 323 324
290 287 288 290 290 300 303 304 308 308 310 306 289 285 295 305 308 308 309 308 309 309 308 308 304 307 308 310 313 314 315 315 315 316 316 315 316 315 317 317 314 315 315 318 319 318 320 322 323 324 325 326 325 326 327 327 327 327 328 328 327 327 328 329 330 331 331 331 331 330 331 330 331 330 330 329 329 328 328 327 326 324 322 322 322 323 323
289 290 287 288 292 300 307 307 308 308 302 288 289 301 308 309 307 309 309 308 309 309 308 308 308 309 312 312 314 314 314 315 315 314 314 315 316 317 316 315 315 315 315 316 318 322 322 321 322 323 325 325 325 326 327 327 328 327 326 325 326 326 327 327 328 330 330 331 331 331 331 331 330 329 330 331 329 327 326 326 325 323 323 322 321 321 324
292 289 287 286 283 295 307 307 305 307 293 296 303 306 308 308 308 307 308 308 308 308 307 309 310 310 311 312 312 313 314 314 314 314 314 313 313 314 315 316 315 314 314 314 315 319 319 321 324 324 325 326 326 326 327 328 326 325 324 325 325 325 325 325 326 328 330 330 330 329 330 330 330 329 329 329 328 327 326 324 323 322 323 323 323 320 323
286 287 285 286 294 303 307 304 295 303 303 305 306 305 303 307 307 307 307 308 308 309 308 308 309 310 310 311 312 312 313 314 314 315 315 314 313 313 314 316 317 316 316 316 316 317 320 320 321 325 325 325 325 326 326 326 325 325 326 325 324 323 325 325 326 327 327 329 329 329 330 329 329 328 327 327 326 325 324 323 321 321 321 322 321 321 320
292 290 294 299 303 306 308 307 305 305 307 307 306 306 305 304 305 308 307 307 309 309 308 308 308 308 310 310 311 311 312 313 313 313 314 315 315 315 316 317 317 316 316 316 316 317 318 322 321 321 323 324 325 325 326 327 327 324 324 323 324 323 324 325 326 326 326 326 327 328 328 328 327 326 326 326 324 324 324 322 321 320 319 319 319 318 317
303 303 304 305 305 307 307 309 308 306 306 307 307 306 305 307 307 308 307 308 308 308 308 306 306 306 308 310 311 311 312 312 313 313 314 315 315 315 316 316 315 314 316 317 317 316 317 318 320 321 322 322 324 323 326 327 326 323 323 323 323 322 322 324 325 325 324 325 326 327 328 327 327 326 326 325 323 323 322 321 321 319 318 317 317 317 316
295 289 300 300 301 304 305 305 306 307 307 306 307 307 306 307 308 308 309 308 308 307 307 306 305 306 307 308 310 311 311 312 313 313 312 313 314 315 315 316 314 315 316 315 316 316 316 319 319 319 321 322 322 325 327 326 324 323 323 323 322 323 323 323 325 325 324 324 324 326 328 327 326 326 325 325 324 321 321 321 321 319 318 316 316 316 315
293 292 299 301 305 306 307 304 303 303 305 306 307 307 307 307 308 308 308 308 307 307 306 306 305 305 306 306 308 309 310 311 311 312 312 312 313 315 317 318 317 317 316 315 315 316 316 318 319 319 320 320 320 322 324 324 324 324 323 323 322 320 322 322 321 324 324 313 319 324 325 325 324 324 325 325 323 321 320 321 320 319 318 316 316 315 315
296 298 300 300 301 302 303 304 305 305 305 305 305 306 306 307 306 306 307 307 306 306 305 306 305 305 305 307 308 308 309 310 311 312 312 313 313 315 314 318 318 316 315 314 315 316 316 317 319 318 319 320 320 323 323 323 323 323 324 321 323 322 322 321 321 322 322 323 321 322 323 324 323 324 323 323 321 321 324 322 320 318 318 317 317 318 317
290 291 295 299 292 292 299 301 303 304 306 305 304 305 305 305 304 305 304 305 306 305 306 305 305 304 305 307 307 308 309 310 311 312 312 313 314 314 317 318 319 318 316 314 315 314 315 317 319 318 319 319 320 320 321 322 323 322 322 323 324 322 321 320 320 320 321 320 322 321 321 321 321 322 309 307 315 321 321 311 306 306 308 319 320 320 317
290 297 299 300 300 298 298 299 301 302 303 303 302 303 304 304 305 305 304 303 304 304 305 306 305 305 305 306 308 308 309 310 311 312 313 313 313 313 315 316 317 318 318 317 316 315 315 316 317 317 318 318 318 318 319 320 322 321 321 321 321 320 320 319 316 320 319 319 320 320 319 319 319 318 320 320 301 297 297 306 306 300 301 302 300 301 317
299 300 299 300 298 296 298 301 302 302 304 303 303 304 304 303 304 304 304 304 303 303 304 306 306 306 306 307 308 309 310 311 312 313 315 316 316 315 315 314 315 315 316 316 316 315 317 316 316 316 317 318 317 317 317 318 320 321 321 320 320 319 319 319 318 320 319 319 320 319 318 318 318 317 317 316 319 303 296 298 297 297 297 297 298 298 297
296 300 300 300 299 300 301 302 302 303 304 303 301 301 302 303 303 304 303 303 304 304 304 304 306 307 307 308 310 310 310 311 312 312 313 311 312 314 315 315 315 315 315 316 315 315 315 316 316 316 316 317 318 317 316 317 318 318 320 320 321 321 320 319 319 318 317 318 319 319 318 317 318 317 316 315 314 316 309 296 294 295 295 295 295 295 296
300 300 300 301 301 300 302 302 301 302 302 303 303 303 304 304 304 304 304 304 304 306 305 305 306 307 308 308 309 310 311 311 310 311 313 313 313 314 315 316 316 316 316 316 316 315 314 315 315 315 316 318 317 317 316 315 316 318 319 320 321 321 321 320 320 320 319 319 319 318 318 317 317 316 315 316 314 314 315 311 307 300 294 292 294 294 294
301 301 300 299 298 299 300 299 298 302 303 304 304 304 304 305 304 305 306 306 306 307 306 307 307 308 308 309 309 310 311 312 313 312 312 312 313 314 315 316 317 318 316 316 315 314 312 315 314 313 313 316 318 317 315 314 315 316 317 318 319 310 302 308 321 321 320 319 319 319 318 317 316 315 316 315 316 315 313 313 313 311 312 309 298 294 302
300 300 300 297 296 298 300 302 303 303 303 303 304 304 304 304 304 304 304 305 305 307 308 309 309 309 308 310 311 311 312 312 311 311 311 310 312 314 316 317 318 317 317 316 315 314 314 315 314 313 314 316 318 317 316 315 315 316 316 317 318 318 321 317 318 320 320 321 320 319 318 318 319 316 315 317 315 315 314 315 312 313 315 315 314 298 294
300 300 301 301 301 302 302 303 302 302 302 304 304 304 304 303 303 303 304 304 306 307 306 308 309 310 309 309 310 309 309 309 309 310 310 311 312 312 314 317 317 317 316 315 315 315 314 314 314 313 313 316 318 317 316 316 316 316 315 315 316 317 319 321 322 320 320 320 321 321 311 316 317 318 318 313 309 317 317 314 314 315 313 314 316 308 298
300 301 301 301 302 302 301 301 300 302 302 303 303 303 304 303 302 303 303 304 305 305 307 309 309 309 309 309 309 310 309 309 310 310 310 311 312 313 314 314 315 315 315 314 314 314 313 314 314 313 314 316 318 318 318 318 317 317 316 315 315 315 317 320 322 322 321 320 320 309 316 317 319 318 318 318 317 317 315 315 313 314 314 314 309 312 310
300 301 301 302 301 302 301 301 301 302 302 303 303 303 303 304 303 303 304 305 306 306 307 307 308 308 308 308 309 309 310 311 310 311 310 311 311 312 313 314 312 309 309 311 313 313 314 314 314 313 315 315 317 317 318 318 318 317 316 315 315 304 298 297 302 320 322 318 315 318 318 313 318 318 315 317 315 316 316 314 315 313 315 314 313 312 314
300 301 301 302 302 302 302 302 302 302 302 303 303 302 303 303 303 303 304 304 306 307 308 308 308 308 309 310 310 310 310 308 308 309 310 310 310 312 313 314 314 307 313 313 312 312 313 315 314 315 316 316 316 317 317 317 317 316 314 307 312 314 307 296 309 312 314 316 315 318 316 318 317 315 314 315 315 316 315 314 314 313 314 312 311 313 314
300 299 300 301 301 301 301 302 302 302 303 303 304 305 305 305 305 305 305 306 306 307 307 307 308 309 310 311 311 310 309 309 309 309 309 309 310 311 312 313 314 313 313 314 314 315 315 315 315 317 316 317 316 316 317 317 316 314 314 313 314 313 306 306 305 313 312 310 316 318 316 317 316 315 315 314 316 312 314 314 314 312 312 313 313 313 312
301 300 300 301 302 301 300 301 303 302 303 304 304 304 305 305 305 306 306 306 307 307 307 308 309 310 309 309 309 309 309 308 307 306 308 308 308 309 311 312 313 313 314 314 315 314 315 316 318 318 318 316 316 316 317 316 314 313 314 314 315 314 314 316 313 308 315 312 314 310 315 317 316 315 316 314 314 314 314 312 311 311 312 312 313 312 305
304 304 303 302 303 302 302 302 302 302 302 302 303 304 304 305 305 305 306 306 306 307 308 308 308 308 308 309 308 308 307 307 307 307 307 307 308 309 310 310 311 311 311 312 313 315 317 317 318 318 317 316 315 316 318 317 315 313 314 315 312 313 314 315 315 316 310 315 315 316 315 316 315 307 312 316 315 313 314 315 312 311 311 311 312 314 311
303 302 302 302 302 302 302 302 302 302 302 302 303 303 304 304 305 305 305 307 308 307 307 307 307 307 307 306 306 306 306 306 306 307 307 307 307 308 308 308 308 308 309 311 313 315 317 317 304 302 319 316 316 316 317 316 315 314 313 313 314 313 308 311 312 315 314 314 313 314 316 312 313 312 312 315 315 315 314 314 313 313 312 312 311 312 313
303 302 302 302 302 303 303 303 302 302 302 302 302 302 303 304 304 306 307 307 307 307 307 308 307 305 306 306 306 306 306 306 305 305 305 306 307 307 307 307 307 307 308 307 312 314 316 315 303 296 309 313 315 316 317 297 313 314 313 313 312 314 313 314 315 314 314 313 313 314 311 312 314 315 311 315 315 314 316 314 315 315 315 313 312 313 312
301 301 301 301 301 301 302 302 303 303 303 302 302 302 303 303 304 304 305 306 306 307 307 307 306 305 305 305 305 304 304 304 304 305 305 305 305 305 306 307 307 308 308 308 312 312 312 310 296 306 316 316 317 316 311 298 297 308 312 311 311 310 310 310 311 310 313 314 309 314 314 314 314 315 314 315 315 314 314 313 315 313 314 313 313 313 312
300 301 301 301 301 301 301 301 301 302 302 302 302 302 302 303 303 304 303 304 305 305 306 305 305 305 304 303 303 303 303 303 304 304 304 304 304 305 305 308 310 310 309 312 313 312 312 310 313 313 314 315 316 316 309 300 296 308 310 311 312 310 310 309 310 309 310 314 313 314 315 314 315 314 314 315 315 312 310 314 313 311 313 314 314 314 314
299 299 299 299 299 299 299 299 300 300 301 302 302 302 302 302 303 302 302 303 304 305 305 305 304 303 302 302 302 302 303 303 304 303 303 304 304 304 305 306 309 312 312 304 311 313 307 298 306 314 315 315 316 317 312 305 300 307 310 310 310 309 309 308 310 310 311 314 313 305 312 313 313 314 312 314 314 312 313 312 313 312 313 314 314 314 314
299 299 299 299 299 299 299 299 299 300 300 300 301 302 303 303 303 303 302 302 303 304 304 304 303 302 302 302 302 303 303 303 303 303 304 304 303 302 301 302 307 310 312 313 313 311 308 304 311 311 313 313 315 308 311 304 308 310 310 309 309 309 310 311 311 310 312 312 310 314 314 313 313 313 312 313 314 314 313 313 313 312 314 314 314 314 314
299 299 299 299 299 299 299 299 300 299 300 301 301 301 303 303 303 302 303 303 303 303 303 303 298 302 303 303 303 302 302 303 303 303 304 303 302 302 301 303 307 309 305 307 306 306 312 312 310 305 313 313 312 301 296 305 308 307 307 309 309 308 308 308 309 309 310 312 314 316 314 315 314 314 313 313 312 311 312 313 313 314 314 314 313 315 314
298 298 298 298 298 299 299 299 299 299 299 300 301 301 302 303 303 302 302 302 302 302 302 302 301 300 302 303 302 302 302 303 302 303 303 304 305 306 305 305 307 308 298 304 309 311 310 311 311 313 305 309 306 295 291 306 307 307 307 308 307 309 307 308 308 311 311 312 314 315 317 315 316 315 314 314 313 313 312 312 313 313 313 315 316 315 314
299 299 299 298 298 299 299 298 299 299 299 300 301 301 301 301 302 301 301 301 301 301 301 301 301 302 301 302 301 301 301 301 301 302 301 301 303 305 306 307 308 305 298 309 308 308 309 309 311 306 294 294 292 289 300 307 308 307 307 308 308 311 309 309 310 310 310 310 311 315 317 312 316 316 316 315 314 315 313 312 314 314 314 315 316 315 315
299 299 299 299 299 299 298 298 298 299 300 300 300 300 301 301 301 301 301 301 300 300 299 301 301 301 301 301 302 302 303 302 302 301 300 299 299 301 305 300 307 307 305 300 308 309 310 310 306 290 294 291 290 288 302 306 307 307 308 308 309 310 310 310 310 311 310 311 312 313 313 316 316 316 316 314 309 313 313 313 314 314 313 314 314 314 315
299 299 299 294 298 299 299 300 300 300 300 299 299 299 300 300 300 301 301 301 300 301 301 301 301 302 302 302 302 302 303 302 302 303 303 303 302 303 305 300 304 301 297 294 305 308 310 298 293 295 292 289 289 298 306 306 308 308 308 308 308 307 309 310 310 310 311 311 312 313 314 316 315 315 315 315 315 314 312 309 310 314 315 315 315 315 315
298 298 299 299 299 300 300 300 300 300 299 298 297 298 299 300 300 300 301 301 301 301 301 302 302 302 302 302 302 301 300 301 302 303 303 304 303 302 299 299 296 294 299 307 308 309 308 308 301 295 290 289 287 305 309 310 309 309 309 309 308 309 309 311 311 311 311 312 311 310 305 310 314 315 312 311 314 313 313 312 313 313 314 312 312 311 310
297 298 298 299 299 299 299 299 298 298 297 297 298 298 299 300 300 300 301 301 301 301 301 302 301 302 303 303 303 303 303 302 299 300 303 303 304 304 304 305 304 295 296 295 297 296 292 291 290 289 288 288 300 310 312 312 311 310 310 310 309 309 310 311 312 312 312 311 312 313 313 314 314 313 313 314 315 314 314 313 313 314 315 313 313 313 313
298 298 299 299 299 298 298 298 297 296 297 298 297 298 298 299 299 299 300 300 300 300 301 301 301 302 302 301 301 303 302 302 302 300 303 304 303 304 304 300 295 294 300 306 307 308 300 291 290 290 289 289 309 311 311 311 310 312 309 310 309 310 310 311 312 313 312 310 311 312 313 314 314 315 314 313 312 314 312 313 313 314 314 313 312 312 312
298 298 298 298 297 297 297 297 296 297 297 298 298 298 299 299 297 298 299 300 300 298 301 301 302 303 303 303 303 303 304 304 304 304 304 305 306 306 305 305 306 298 296 304 306 306 299 295 292 292 298 309 311 311 311 311 311 309 311 311 309 310 307 308 302 302 309 310 311 311 311 312 314 311 312 311 313 313 313 313 314 307 300 305 310 312 312
298 297 297 298 298 299 299 299 298 299 299 299 300 299 299 298 298 297 299 300 300 299 299 301 302 303 303 304 304 305 305 305 303 300 304 304 305 301 299 302 305 301 305 304 306 307 308 309 310 307 309 309 310 310 309 309 308 308 306 311 310 311 310 308 308 309 310 309 309 310 311 311 313 314 314 313 312 311 312 313 312 312 314 312 312 312 313
298 298 298 299 300 300 300 300 300 300 300 300 300 300 301 300 299 300 301 294 300 301 301 301 300 302 303 303 303 304 306 305 303 304 301 305 305 305 304 298 306 305 307 309 309 310 311 309 303 302 301 308 309 309 301 299 306 308 309 306 306 311 308 310 307 309 310 311 312 310 309 310 311 311 311 312 312 313 310 311 313 312 311 313 313 312 314
Wind_Speed
16 15 16 11 9 11 11 12 12 12 11 11 14 15 15 15 12 15 14 15 17 14 14 13 13 11 12 13 15 15 14 13 15 16 17 17 18 18 15 13 13 12 12 10 9 9 9 8 8 8 8 9 8 8 8 9 9 10 10 10 11 12 13 13 13 13 13 13 13 14 13 12 13 13 13 12 11 10 10 10 9 10 10 10 9 9 8
13 13 12 10 12 12 12 13 14 15 14 16 15 15 16 17 19 18 18 18 19 17 16 14 15 14 14 15 13 11 13 14 14 15 15 17 17 17 16 13 13 13 14 13 12 9 9 9 9 9 9 9 10 9 9 9 9 9 9 10 11 11 12 12 12 12 13 12 13 14 14 14 14 13 13 12 10 10 10 10 9 9 10 10 10 9 9
14 14 13 11 12 14 15 15 15 15 14 14 15 15 15 15 16 17 18 19 19 14 14 15 15 14 12 11 12 13 12 13 12 13 14 15 16 15 14 13 13 12 12 12 12 10 9 10 10 10 9 10 9 9 9 10 10 10 10 10 10 11 11 11 11 12 11 11 12 14 13 12 13 14 14 12 12 12 10 10 10 10 10 10 10 9 9
12 14 14 13 13 14 16 17 17 18 18 17 14 12 12 14 17 17 18 18 15 12 11 11 7 8 10 11 11 12 12 13 13 14 14 14 14 14 14 13 12 11 11 11 11 11 11 11 11 11 10 10 10 10 10 10 10 10 10 10 11 11 11 11 11 12 11 12 12 13 13 13 14 14 13 12 12 11 8 6 6 9 10 11 11 10 8
11 12 13 14 15 13 15 17 17 18 18 16 14 16 16 16 16 15 13 15 12 12 4 7 8 8 8 11 12 13 14 13 13 13 12 12 13 14 14 14 13 13 12 11 10 10 11 11 11 12 12 11 11 10 11 10 9 10 11 11 11 11 11 11 11 11 12 12 13 13 13 14 13 13 14 14 13 13 13 12 10 11 11 11 11 10 9
10 13 11 8 9 15 14 9 15 17 18 17 18 17 17 17 16 13 12 14 13 14 10 6 7 7 8 9 11 11 11 10 9 9 11 12 13 13 13 13 13 13 12 11 10 10 10 11 11 11 11 10 9 9 9 10 11 10 11 11 11 11 11 12 12 12 12 12 13 13 13 13 13 14 15 14 13 13 12 13 12 11 11 10 9 10 10
9 5 6 8 15 15 10 9 6 12 16 16 18 17 17 15 15 17 16 14 12 7 5 5 4 5 6 8 10 11 7 6 6 9 11 12 14 15 14 14 14 13 13 13 13 11 10 9 8 7 9 9 9 10 10 11 11 11 11 11 11 11 12 12 12 12 12 12 12 12 12 13 13 14 14 14 14 12 12 11 11 11 12 11 8 10 10
2 4 8 10 10 3 2 6 6 4 8 11 11 14 14 14 11 8 11 9 4 3 3 3 3 5 8 9 10 3 4 6 7 9 10 12 13 14 13 14 14 14 13 13 12 10 8 7 7 8 8 8 9 10 10 10 10 11 11 11 12 12 12 12 13 12 12 12 12 12 12 12 13 13 13 14 14 12 12 10 11 10 11 9 11 13 11
9 7 10 14 8 6 7 5 10 10 10 11 11 9 10 3 2 4 5 3 1 3 3 4 5 7 8 9 5 6 7 8 8 9 9 11 12 12 13 12 13 13 13 12 12 10 8 7 7 7 7 9 9 9 10 10 10 11 11 12 12 12 12 12 13 13 13 12 12 12 12 13 13 13 13 14 13 12 12 12 10 12 11 10 11 10 10
6 8 10 10 11 13 10 9 5 4 4 3 0 4 9 7 5 3 3 4 3 4 3 4 7 8 9 10 8 2 10 10 10 10 8 10 11 11 13 13 13 13 11 10 11 10 10 8 8 7 8 8 9 10 10 10 11 11 11 12 12 12 12 12 12 12 12 12 12 12 12 13 13 12 12 11 12 12 12 11 12 11 11 10 6 7 10
6 10 11 10 11 8 1 7 7 5 3 3 4 5 11 6 6 4 2 2 3 4 5 6 6 7 9 9 6 6 11 11 10 11 11 11 11 12 13 14 15 15 12 11 11 10 9 8 7 7 8 9 9 9 9 9 10 10 11 11 10 11 10 10 10 10 11 11 11 12 12 13 12 12 12 12 11 11 11 11 11 10 10 10 11 9 8
10 8 8 10 4 8 5 8 8 5 3 5 7 9 8 8 5 2 1 2 3 4 5 5 6 8 11 11 8 10 11 10 10 11 12 13 13 12 13 13 13 14 13 9 9 8 8 7 5 7 8 8 8 7 8 8 9 9 9 9 9 8 8 8 8 9 9 11 11 11 12 11 11 11 10 10 11 11 10 10 10 11 10 9 10 10 8
13 14 11 9 7 2 8 9 8 7 5 4 6 11 2 6 3 3 2 4 4 6 7 8 9 9 9 10 10 11 12 11 9 9 10 11 11 11 12 12 13 13 13 11 9 9 7 4 4 6 7 7 7 7 7 7 8 8 7 7 7 7 7 7 8 9 9 10 11 11 10 10 10 10 9 10 11 11 11 10 10 10 10 11 9 10 11
15 13 14 12 9 3 10 7 7 7 6 6 10 2 4 4 3 3 2 5 4 6 7 8 9 10 10 10 9 11 11 10 9 9 10 10 11 9 9 10 11 12 12 14 13 9 7 5 3 4 6 6 7 7 7 7 7 7 6 6 5 5 6 7 8 8 9 9 10 9 9 9 10 10 9 10 10 12 11 11 12 12 12 12 12 11 8
10 9 11 10 13 4 8 10 6 8 8 4 3 3 4 2 4 2 4 3 5 5 8 9 10 11 11 11 9 9 10 10 10 9 9 9 10 11 11 11 12 11 11 13 14 12 9 7 5 3 5 6 6 6 7 7 6 6 6 5 6 6 6 7 7 8 9 10 9 8 9 10 10 10 9 10 10 11 11 11 11 11 11 11 11 11 10
11 12 12 8 1 6 9 10 5 6 8 3 2 2 4 3 3 4 3 4 4 5 7 9 10 11 11 10 9 9 9 9 9 9 8 9 9 9 9 8 9 10 8 9 10 12 9 7 6 5 4 5 5 6 7 6 6 5 5 5 5 5 6 7 7 8 9 10 10 9 10 10 10 10 10 10 10 9 10 10 10 11 10 11 11 11 12
9 9 9 2 4 8 8 6 2 1 2 2 2 3 3 4 4 2 5 5 5 5 6 8 9 10 10 10 9 9 9 10 10 10 10 9 10 9 8 7 8 8 8 9 9 10 10 8 6 6 6 6 5 7 6 6 7 6 6 5 5 5 6 7 7 8 8 9 10 10 10 10 10 10 10 10 9 9 9 10 9 10 10 10 11 11 11
6 11 5 3 3 4 7 4 1 3 4 3 2 4 6 4 5 4 5 6 6 7 7 8 9 10 10 11 10 10 10 10 10 10 9 9 8 8 7 7 6 6 7 7 8 8 9 10 8 6 5 6 7 5 5 5 6 6 6 6 6 6 6 6 7 8 9 10 11 10 9 9 9 9 10 10 9 9 9 10 10 10 9 10 11 10 10
4 6 7 13 12 10 10 10 8 7 5 5 5 5 7 7 6 6 5 6 7 8 9 10 10 11 11 11 11 11 10 10 10 10 10 9 8 8 9 6 5 5 5 7 7 7 7 7 7 8 6 5 4 4 3 4 6 6 6 7 6 6 5 5 5 6 7 8 9 8 8 8 8 8 9 10 10 10 9 10 11 11 11 11 11 10 9
6 4 3 2 1 3 1 4 6 7 8 9 7 6 6 6 7 7 7 7 9 9 10 10 10 11 12 12 11 11 11 10 9 9 10 10 9 8 8 6 5 5 6 8 9 7 6 6 6 7 7 8 6 4 4 2 3 5 6 7 7 6 6 5 5 6 7 4 5 6 7 7 8 8 9 10 10 10 10 11 11 11 11 11 11 10 9
8 10 12 12 13 14 13 10 9 9 9 8 7 7 7 7 8 9 9 9 9 9 11 11 11 12 12 12 11 11 11 11 10 10 9 9 9 9 9 6 4 6 5 6 8 8 8 7 6 7 7 7 7 6 4 4 4 5 6 7 7 7 6 5 5 5 5 6 7 7 6 7 8 8 9 10 10 10 10 11 11 11 11 10 9 9 10
8 8 7 7 8 7 8 7 5 6 6 7 9 9 9 9 10 10 11 10 10 11 11 12 11 12 12 12 12 12 11 11 11 11 10 9 9 9 9 7 6 5 6 7 6 7 8 7 6 7 7 7 7 8 6 4 4 6 7 6 7 8 7 6 6 6 6 6 7 8 8 9 9 9 3 2 4 8 10 10 5 3 3 8 7 8 9
8 8 7 4 6 8 8 9 9 9 9 10 10 11 10 10 11 11 12 12 12 12 11 10 12 13 12 13 12 12 10 11 11 10 10 10 9 9 9 9 9 7 7 7 6 6 6 6 7 8 6 4 5 7 8 6 5 6 7 7 7 8 8 8 7 7 7 7 7 8 8 9 9 9 9 7 5 1 8 2 7 8 4 2 3 2 5
12 10 9 8 8 9 7 8 9 9 9 10 11 11 12 12 12 12 12 12 12 12 12 12 11 13 13 13 12 12 11 11 11 11 10 9 9 9 10 9 10 10 9 9 8 8 6 4 5 6 6 4 3 4 6 7 6 6 7 8 8 8 8 8 8 9 8 8 8 8 8 9 9 9 10 9 8 9 10 6 4 6 8 8 7 8 8
9 6 6 7 8 9 9 10 10 10 10 10 11 12 13 13 13 12 13 12 11 12 12 13 13 12 13 11 10 10 11 10 10 9 9 9 10 9 10 10 12 11 10 8 8 8 8 7 7 6 5 6 6 3 3 6 7 7 7 8 9 9 9 9 8 9 9 8 8 9 9 9 9 10 10 10 10 9 6 4 4 6 7 9 10 10 9
9 9 9 10 10 10 9 10 12 12 13 12 12 12 11 11 10 11 12 12 12 12 13 13 13 13 12 11 9 9 9 10 9 8 8 8 8 8 10 11 11 10 9 9 8 8 8 9 9 9 7 6 7 3 3 4 7 7 8 9 10 10 9 9 10 8 9 9 10 10 10 10 9 10 10 10 10 9 7 6 4 2 4 9 11 11 11
8 9 9 11 12 12 10 11 10 10 11 11 11 11 10 11 10 10 10 11 12 13 13 13 12 11 11 10 10 9 9 8 7 7 7 8 9 10 9 9 9 10 10 8 8 8 8 9 9 9 11 10 9 6 5 5 6 7 7 8 9 11 12 9 8 9 9 9 10 10 10 11 11 11 10 10 10 10 11 8 8 9 9 10 11 14 12
9 9 9 10 10 9 9 10 11 12 12 11 11 11 11 10 10 11 12 12 12 12 11 11 10 9 9 8 7 6 7 8 8 8 9 9 8 8 8 8 9 9 9 9 9 9 8 9 9 10 11 10 10 9 7 7 6 6 7 8 9 9 8 10 11 10 9 9 9 10 10 10 11 11 10 9 9 9 9 10 10 10 9 9 9 14 17
9 9 9 10 11 11 11 11 11 12 13 12 11 11 11 11 11 11 11 11 10 10 9 9 8 7 7 6 6 6 6 6 7 8 9 9 10 10 9 8 8 8 8 9 10 9 9 9 9 10 11 10 7 7 9 8 5 6 7 7 8 9 9 9 9 9 10 9 9 9 9 9 9 10 10 9 7 10 10 11 10 10 9 8 6 5 6
9 8 8 9 9 10 11 12 12 12 12 11 11 11 11 11 11 10 10 11 9 8 8 6 6 7 6 7 6 5 6 6 6 6 7 8 9 9 9 9 8 7 8 9 10 10 10 9 8 9 10 8 6 6 6 6 6 6 6 8 9 10 10 10 9 9 8 9 9 8 8 8 9 9 9 9 9 10 10 10 10 10 10 8 8 8 9
9 8 9 8 9 9 11 12 12 11 11 11 11 11 11 10 11 10 10 10 8 8 8 8 7 7 6 7 7 6 5 6 7 7 8 9 9 9 9 8 9 10 10 10 10 10 10 9 8 7 7 7 6 7 6 6 5 5 5 6 7 11 15 14 12 9 9 9 8 9 9 7 9 9 9 9 9 9 9 9 9 9 9 10 10 10 9
8 8 8 8 8 9 10 9 9 9 8 8 8 9 9 9 10 10 9 9 8 8 7 7 7 6 6 6 6 6 7 8 8 9 9 9 9 8 8 9 9 10 11 11 11 11 11 10 10 9 7 7 7 7 6 6 5 4 4 4 7 9 9 14 12 12 11 9 8 9 9 9 9 9 9 10 10 9 9 10 10 9 9 10 10 10 10
6 5 5 3 4 4 4 4 4 5 5 5 6 6 6 6 7 7 7 7 7 7 7 7 6 5 6 6 7 7 8 9 9 10 10 10 9 9 9 8 8 9 10 9 10 10 10 11 11 9 8 7 7 7 6 5 4 4 4 4 6 8 9 7 10 10 11 9 9 9 9 10 9 10 10 10 10 10 10 10 10 10 10 10 10 11 10
4 2 2 2 2 2 1 1 0 1 1 2 2 3 4 4 5 5 5 6 6 7 7 6 5 6 6 6 6 6 7 8 8 8 9 10 10 10 10 8 8 9 10 11 11 10 9 9 9 8 8 7 7 7 5 5 4 4 4 5 5 7 9 9 9 8 10 10 10 8 10 10 10 10 10 10 10 10 11 11 11 10 10 10 10 10 9
2 1 0 1 0 1 2 3 4 4 5 5 5 4 4 4 5 5 5 6 7 7 6 5 6 6 7 7 6 6 7 8 8 9 9 10 10 10 10 10 10 10 11 12 11 10 9 9 9 9 8 7 7 6 5 4 2 2 3 3 5 7 8 9 8 7 7 9 9 9 10 10 10 10 10 10 10 10 10 11 11 11 11 11 10 11 9
3 3 2 1 1 1 1 2 2 3 4 5 6 7 7 7 7 7 7 7 7 7 7 7 7 7 8 8 7 6 7 8 9 9 10 10 11 10 11 11 11 12 12 12 11 12 9 7 5 6 7 6 5 5 5 3 3 1 2 3 4 6 6 8 9 8 8 8 9 10 10 11 10 10 10 10 10 10 11 11 11 12 11 12 11 11 7
1 1 0 1 1 2 3 3 3 3 4 4 5 6 6 7 8 8 8 8 7 7 7 6 7 7 7 6 6 6 7 7 8 8 8 9 9 10 11 11 11 12 11 10 8 7 9 6 4 1 4 6 5 5 4 4 4 2 3 4 5 6 8 8 8 8 8 9 9 10 10 9 9 10 10 10 11 11 11 11 10 10 11 10 10 10 9
2 1 0 1 2 3 4 4 4 5 5 6 6 5 5 5 6 6 8 8 8 8 6 6 7 7 7 7 7 7 8 7 8 9 9 10 10 10 10 10 9 8 9 8 8 8 8 3 5 5 7 7 5 3 4 2 2 3 2 2 6 6 8 10 10 10 9 9 9 9 10 10 10 10 10 10 11 12 11 12 11 10 10 10 10 11 11
3 2 2 1 3 4 5 6 6 5 6 7 7 7 6 5 6 7 7 7 8 8 8 9 8 8 8 9 8 8 8 7 8 9 10 11 10 9 10 10 10 9 11 10 8 8 7 4 5 6 6 5 4 3 4 5 4 2 2 3 5 6 7 9 10 10 11 10 9 9 10 10 10 11 11 11 11 11 11 12 11 11 11 10 10 11 11
1 1 2 3 4 4 5 5 6 6 6 6 7 8 7 7 8 8 8 8 7 6 8 9 9 9 9 9 8 7 7 8 8 9 11 10 9 9 10 10 11 10 8 6 6 8 4 1 5 6 6 5 3 3 3 4 3 3 3 4 5 6 7 8 9 10 11 10 10 11 10 10 10 10 10 10 10 10 10 11 11 11 10 10 11 11 11
2 2 3 3 4 5 5 6 6 7 7 7 7 7 7 8 8 9 9 9 8 7 7 7 7 8 8 9 9 9 8 8 9 11 11 10 10 9 9 9 8 9 9 6 7 7 7 7 7 7 6 5 3 1 4 4 4 2 2 4 5 6 6 6 8 11 10 9 12 11 10 10 10 10 10 10 10 10 10 10 10 11 11 11 11 11 11
2 3 4 5 5 5 6 7 7 7 7 8 8 8 8 8 8 9 9 9 9 9 9 9 9 10 10 9 9 9 9 10 11 11 10 10 9 10 9 9 8 8 4 1 5 7 8 8 7 6 6 5 4 2 2 4 5 4 4 4 5 6 7 7 8 10 12 12 12 11 12 10 9 9 10 10 10 10 10 10 10 11 11 11 11 11 11
4 5 5 5 6 7 7 7 8 8 8 8 8 8 8 8 9 9 9 10 10 10 11 11 10 9 10 11 11 12 11 11 11 11 10 9 9 9 9 10 10 8 3 5 7 8 9 8 8 6 3 3 6 3 2 5 5 5 5 5 5 6 7 8 8 8 11 12 12 12 12 11 9 9 10 10 10 10 10 11 11 11 11 11 11 11 11
5 5 5 6 7 7 7 8 8 8 8 7 7 8 9 9 9 10 10 10 11 11 11 10 10 11 11 11 10 10 10 10 10 9 10 10 10 9 9 8 8 4 3 6 7 8 8 9 7 5 5 2 6 7 6 5 5 5 6 5 4 5 6 7 8 9 11 11 12 11 11 11 10 10 10 10 10 10 10 10 10 11 11 11 10 10 10
5 6 6 6 7 7 8 8 8 9 8 8 9 9 10 10 10 10 9 9 10 10 10 10 10 10 10 10 10 10 9 9 9 10 10 10 10 9 7 5 4 7 4 3 6 8 9 8 3 5 2 3 7 7 6 6 6 5 6 6 6 5 6 6 8 10 10 11 11 11 11 10 10 9 9 9 9 9 9 10 11 11 10 10 10 10 10
7 7 7 7 7 7 7 8 8 8 9 10 11 11 11 12 12 10 10 10 10 10 10 11 10 10 10 11 11 11 11 10 10 10 10 10 10 10 9 7 7 6 8 9 8 8 9 2 3 3 3 5 6 7 6 6 6 6 6 6 7 6 6 5 8 9 10 10 10 10 10 9 9 8 8 8 8 9 9 10 9 9 10 10 10 10 10
8 8 8 8 8 8 8 8 8 9 11 11 11 11 11 11 11 11 11 11 11 11 11 12 12 12 12 12 11 10 10 10 10 9 10 10 10 9 7 7 10 11 9 7 7 8 9 8 8 6 7 7 7 6 6 5 5 6 6 6 6 7 7 6 7 8 10 10 10 10 10 10 8 8 8 8 9 9 9 9 9 10 9 9 10 10 10
8 8 8 9 9 10 10 10 10 11 11 11 11 11 11 11 11 11 10 10 11 12 12 12 12 12 12 12 12 11 10 10 11 10 9 9 9 9 10 9 9 8 7 10 12 13 16 15 13 11 9 8 8 7 7 6 5 5 6 6 7 7 7 7 7 7 8 10 10 9 8 8 8 9 9 8 8 8 9 9 9 9 9 9 9 9 10
7 8 8 9 10 10 11 11 10 10 10 10 10 10 10 10 10 10 10 10 11 10 10 10 11 11 11 11 11 10 10 10 10 11 9 10 10 10 10 11 11 10 8 8 9 10 6 9 9 9 9 8 7 8 8 8 7 7 6 6 6 7 7 7 7 5 6 8 9 11 10 10 9 8 8 8 8 8 8 9 9 9 9 9 9 9 9
8 9 9 9 10 10 10 10 10 10 10 9 9 9 9 9 10 10 9 9 9 8 8 9 9 9 8 9 9 9 9 9 9 9 9 9 10 10 10 9 10 10 9 9 10 10 10 11 12 10 9 7 7 8 8 8 7 7 7 7 7 8 8 8 6 8 7 7 9 11 11 10 9 9 9 8 8 8 8 8 8 8 7 8 9 8 8
8 8 9 9 9 10 11 10 10 10 9 9 9 9 8 8 8 8 8 8 8 8 9 9 9 8 8 8 8 8 8 9 9 7 7 8 9 9 9 9 10 10 10 9 9 9 9 9 7 5 5 6 7 7 6 7 8 8 7 7 7 7 8 8 8 8 8 8 8 8 9 9 9 9 8 8 8 8 8 8 8 8 8 9 9 9 9
9 9 8 8 8 8 9 9 8 7 8 8 8 7 6 6 7 7 8 8 8 9 9 10 10 9 9 9 9 9 9 8 9 9 9 9 8 9 9 8 9 9 9 8 8 9 8 8 6 4 4 5 5 6 6 6 6 7 7 7 6 6 6 7 7 7 6 6 7 7 8 8 7 7 8 8 8 8 7 7 7 7 7 7 7 8 8
Wind_Direction
242 247 255 238 236 246 246 240 240 228 218 218 223 233 242 248 250 263 274 276 273 275 275 282 284 289 292 294 289 294 311 310 293 287 286 285 284 283 279 274 272 269 267 263 251 238 224 212 202 198 191 181 182 182 187 186 189 193 193 197 204 206 210 211 210 211 210 212 214 210 206 207 202 197 198 195 195 195 193 197 197 200 195 195 190 195 191
237 235 234 226 236 237 238 237 235 240 235 236 237 241 243 247 255 259 268 273 276 279 280 283 285 285 285 285 291 294 287 288 291 287 285 283 282 282 283 285 286 281 273 267 260 242 220 214 206 203 201 188 183 184 186 185 188 189 191 200 204 204 208 210 210 211 207 211 214 211 209 213 205 200 197 193 188 207 198 198 197 203 201 200 195 197 197
240 234 232 229 225 234 238 236 236 237 235 237 239 247 249 256 261 264 265 271 272 266 273 277 276 276 280 289 288 294 300 297 294 292 288 287 286 288 288 284 282 279 273 265 258 241 223 220 215 211 205 194 187 186 183 183 187 188 192 197 203 206 207 207 207 208 208 207 212 213 209 215 211 205 200 190 181 187 191 201 198 202 204 201 201 202 202
242 232 231 228 230 232 238 237 233 232 232 236 231 237 238 246 255 260 265 265 264 271 282 291 286 284 295 296 299 297 297 301 302 299 299 299 297 293 289 288 287 284 278 268 255 245 239 227 215 211 202 199 187 187 181 182 181 183 191 197 203 204 207 202 207 208 207 208 211 211 208 212 213 204 193 182 178 183 181 167 209 216 208 209 204 202 206
241 240 228 234 232 237 240 236 234 233 236 240 240 242 239 240 251 257 256 258 269 289 342 312 300 310 302 295 298 299 300 301 303 311 319 320 317 317 319 316 309 298 289 283 274 259 249 237 224 216 205 203 194 190 179 175 170 182 190 197 201 205 204 205 202 207 206 209 213 213 214 214 212 203 193 189 188 187 190 195 193 214 213 211 210 205 200
242 242 240 243 244 237 236 237 227 228 237 233 239 242 245 246 240 254 263 271 278 283 298 321 319 314 307 305 297 293 291 303 326 331 325 322 323 322 319 314 308 305 298 286 277 273 270 263 239 227 216 210 193 186 177 171 175 183 190 195 201 202 203 204 203 202 209 210 214 213 213 212 208 204 199 195 194 194 194 189 195 201 212 214 220 213 207
239 216 197 223 236 242 262 264 236 223 229 238 246 251 250 249 246 248 252 262 278 309 333 328 335 312 298 287 283 287 345 18 345 335 331 332 332 325 321 319 314 307 300 289 278 270 268 273 266 234 206 194 180 179 178 178 180 183 191 196 200 203 205 206 204 204 206 207 211 211 206 205 202 201 201 200 197 197 193 191 194 198 205 202 209 231 211
241 218 210 231 241 330 252 224 225 263 251 245 251 254 253 255 267 278 270 273 290 322 321 329 317 322 303 288 275 280 68 18 6 350 347 340 334 326 323 316 307 304 300 289 280 275 271 259 241 224 212 193 189 187 181 183 184 186 191 198 202 201 205 204 205 203 203 202 201 202 201 199 200 201 201 203 200 203 199 195 200 206 205 194 198 221 216
227 204 214 232 264 204 185 157 194 202 220 218 213 233 239 183 153 246 258 254 272 328 319 335 327 320 295 278 261 109 22 18 3 351 349 348 339 332 328 323 312 304 299 287 276 273 265 253 244 227 209 195 194 188 184 188 189 191 196 200 203 200 204 202 203 201 201 200 198 199 197 200 201 201 201 202 203 199 202 199 193 206 203 193 206 216 223
211 234 237 243 241 253 241 223 119 81 69 50 66 251 249 157 174 178 220 238 252 271 292 312 331 306 288 269 245 113 11 1 347 341 337 343 347 345 344 342 341 330 313 294 275 266 261 250 242 229 210 196 191 191 191 191 193 196 202 207 206 203 204 204 202 201 200 199 196 196 196 200 201 202 202 202 203 201 207 202 203 201 205 193 192 215 218
208 219 239 241 250 261 322 112 97 109 78 192 197 232 254 172 157 135 233 251 274 304 306 316 316 299 283 279 278 23 355 343 341 334 335 340 347 353 1 358 351 345 331 310 297 283 265 256 235 220 212 200 196 190 187 189 192 198 205 212 213 213 211 207 204 202 201 202 200 197 200 202 202 201 201 201 198 199 204 208 206 194 182 189 199 216 221
231 235 232 244 233 262 175 133 140 129 135 142 204 246 251 127 162 108 253 256 301 287 307 311 293 284 282 285 311 348 333 329 333 338 335 333 339 350 1 11 2 352 340 322 301 280 270 257 235 213 208 204 200 191 183 186 193 203 207 215 220 220 220 215 211 206 203 204 203 201 203 201 200 202 198 195 196 196 199 205 197 193 189 187 205 213 204
228 226 243 255 249 152 147 160 141 141 142 197 236 244 351 132 174 188 245 289 304 298 290 289 286 284 294 302 309 310 313 318 327 335 330 326 329 341 355 4 2 3 358 356 337 319 313 293 241 211 205 198 190 185 177 186 195 202 205 207 214 217 216 216 212 210 205 205 205 204 205 202 199 199 194 193 190 191 192 197 195 187 184 201 207 218 215
229 228 236 241 256 184 139 135 158 166 186 216 242 36 137 178 210 227 265 280 291 292 284 278 279 290 298 294 296 300 306 313 315 322 330 331 332 338 351 357 11 4 2 360 358 360 353 327 271 220 204 195 187 176 181 191 191 189 191 191 200 206 214 216 215 212 209 205 203 203 203 200 196 195 192 184 181 188 191 193 191 196 193 201 209 210 209
227 230 238 234 234 154 184 139 173 177 225 278 42 168 189 209 264 224 242 251 267 276 282 280 279 283 284 289 292 297 300 305 312 321 330 335 336 338 340 347 11 6 5 1 359 349 352 343 308 255 215 197 186 177 193 190 183 184 181 194 203 214 222 227 223 220 211 203 197 197 194 193 189 189 185 183 180 183 188 190 197 202 204 205 207 212 215
213 214 220 228 315 115 172 168 218 197 233 332 309 318 242 184 219 243 256 245 269 289 285 285 284 283 285 284 287 293 297 302 309 315 320 326 333 339 337 345 4 354 3 9 1 355 350 351 330 312 266 229 201 199 201 186 178 177 183 196 211 220 227 234 229 221 216 206 200 196 187 185 188 190 186 184 184 187 188 192 198 206 211 211 215 217 215
215 222 231 187 100 150 174 218 268 251 192 167 193 250 297 271 252 250 268 278 281 290 294 291 287 288 285 289 294 295 297 300 305 313 318 320 325 334 333 340 1 352 356 356 359 1 359 357 351 328 304 283 239 221 205 185 184 185 187 194 204 220 229 231 227 226 221 220 209 202 188 186 189 191 189 185 187 189 191 199 202 208 210 206 211 218 224
239 267 284 97 171 169 184 176 205 267 237 234 224 236 252 252 272 279 284 294 293 290 294 293 291 286 291 291 290 290 292 295 300 303 305 309 318 324 324 324 346 344 342 345 354 1 0 3 349 346 325 301 285 268 259 206 197 190 187 195 202 218 227 230 229 227 224 223 216 205 189 187 191 192 191 190 193 189 191 199 200 207 210 216 219 222 226
220 237 231 244 248 236 239 249 257 247 254 273 262 245 244 265 271 270 273 284 291 294 291 286 287 291 291 290 288 288 286 288 294 300 303 305 312 313 312 326 320 321 322 328 337 352 356 359 352 343 331 311 292 291 280 256 229 202 196 197 202 206 219 227 222 234 229 222 215 199 192 194 196 199 198 197 197 197 199 203 203 204 207 214 219 219 226
214 236 134 252 239 192 218 262 242 226 243 246 236 244 258 266 277 281 280 280 277 281 280 281 286 289 291 289 288 288 289 289 291 294 296 300 304 304 301 303 302 314 322 316 317 324 329 333 339 340 342 342 337 319 292 288 266 231 209 202 212 207 203 221 223 212 220 161 203 202 195 198 202 202 204 203 202 205 205 203 202 202 209 213 221 227 225
241 261 260 262 266 264 257 248 241 244 252 260 263 267 269 269 272 277 276 271 278 281 282 286 282 281 282 284 285 284 286 286 286 287 288 291 292 293 296 298 273 289 299 300 301 305 308 316 318 325 339 343 347 331 301 264 255 250 242 223 224 222 206 209 218 223 222 200 210 212 200 200 211 212 209 213 219 215 212 214 212 214 213 216 217 219 228
245 248 248 241 250 245 235 234 245 252 249 263 272 274 268 267 271 274 280 282 284 283 281 280 278 277 279 280 282 281 282 282 283 284 284 281 280 281 281 289 287 274 258 256 263 284 299 301 309 313 324 341 346 336 317 293 253 241 243 244 236 230 216 214 210 205 218 214 212 217 219 218 216 217 202 344 267 226 212 197 212 234 216 218 211 223 238
247 244 255 283 283 286 281 282 279 279 277 274 273 272 276 280 280 281 281 286 286 280 278 278 280 278 274 275 278 278 276 278 281 282 281 279 279 279 280 280 280 273 271 264 266 259 258 276 286 296 306 336 343 337 327 301 269 251 239 236 238 240 227 223 212 207 210 216 212 219 220 224 224 224 215 197 225 344 40 68 185 185 200 166 62 358 274
270 280 284 279 273 272 286 287 281 278 280 279 277 277 279 280 279 278 279 281 284 285 285 281 275 276 275 273 274 278 279 278 280 280 280 281 276 277 279 275 273 276 275 270 270 275 268 236 256 278 281 290 302 325 327 314 293 267 255 246 241 241 236 230 199 205 218 212 213 218 220 218 220 220 221 215 196 207 198 157 150 190 200 209 217 224 247
253 260 271 272 272 275 274 277 279 282 282 281 276 275 275 277 277 280 281 280 279 281 282 283 282 277 277 279 278 276 276 277 275 278 281 274 269 270 270 270 265 263 266 271 277 278 280 281 277 264 266 286 285 283 329 320 312 292 273 259 251 245 244 236 215 204 218 218 214 218 224 219 219 219 222 221 219 199 161 101 118 180 203 212 213 218 218
250 260 265 266 267 268 272 275 273 273 272 269 268 265 263 261 269 278 278 280 280 279 278 278 278 279 280 280 274 273 271 270 278 284 276 272 273 260 249 252 260 265 262 262 266 268 270 271 274 282 275 261 266 269 310 301 305 301 286 272 261 255 244 237 233 220 215 221 220 223 223 226 227 223 221 223 223 218 180 180 192 227 233 225 221 212 216
250 256 265 269 265 264 262 265 277 280 279 278 277 279 279 278 270 266 271 271 272 274 274 274 273 274 276 272 265 264 269 281 283 267 271 276 276 278 280 277 267 258 254 254 257 260 262 267 271 267 265 255 239 235 260 283 295 304 297 285 275 260 252 262 247 233 226 225 228 227 228 227 224 226 227 223 223 222 225 200 191 202 209 210 209 204 207
261 257 253 263 269 273 275 275 277 280 280 278 279 278 278 277 275 272 271 271 270 267 263 258 257 254 253 251 252 254 247 250 267 282 283 281 282 283 282 279 275 266 256 249 252 257 256 259 259 262 265 257 229 225 247 265 275 292 297 293 279 274 259 218 227 237 235 230 225 226 228 228 230 231 229 219 217 223 227 233 227 220 215 210 189 199 205
258 261 259 258 263 267 272 276 274 272 273 273 271 273 274 271 268 268 269 270 275 278 269 260 244 236 244 252 253 263 273 282 286 290 292 292 289 285 283 275 271 264 253 248 252 256 257 257 260 270 273 267 237 213 212 231 263 279 289 287 282 273 260 248 225 220 225 228 224 224 219 223 224 228 225 226 226 228 232 236 227 226 228 230 137 108 164
254 251 251 251 251 255 261 261 260 261 266 272 272 266 262 262 265 266 270 273 275 271 271 264 245 244 247 262 262 272 283 289 295 298 301 303 301 293 284 280 273 261 253 249 251 255 257 259 260 266 276 278 251 227 223 234 240 251 264 271 270 263 261 254 240 228 219 215 218 201 210 214 224 225 224 222 220 222 226 226 218 226 232 225 179 190 180
268 268 265 260 252 248 249 256 263 266 264 263 263 265 261 258 260 263 264 268 269 268 265 260 254 255 252 263 277 277 277 286 294 300 304 305 302 296 288 280 273 273 269 268 263 260 260 260 262 266 280 284 269 257 252 255 255 245 246 259 265 253 247 265 281 256 232 219 208 203 208 210 218 218 221 218 214 215 217 219 207 214 216 232 230 228 229
268 261 248 242 240 239 241 245 255 259 261 257 252 250 254 255 256 261 269 273 277 278 274 264 261 269 288 298 296 289 283 289 295 297 299 297 294 294 294 290 284 277 274 274 271 268 263 255 252 258 265 266 260 259 262 266 269 267 271 268 272 278 253 219 230 243 255 240 216 204 207 207 212 211 211 213 215 214 213 218 219 214 218 224 234 234 234
238 227 200 187 196 199 212 214 238 254 260 262 258 261 261 260 264 268 271 278 281 274 266 262 265 279 287 288 286 284 286 287 290 291 289 289 294 301 302 297 294 294 290 285 282 275 264 256 254 253 257 267 266 250 236 233 243 256 264 267 282 275 272 238 219 236 229 233 228 216 208 206 212 207 212 211 215 215 214 218 216 217 219 226 230 236 234
243 342 42 27 330 339 6 346 353 295 306 288 278 268 263 259 260 267 272 275 274 273 268 272 283 286 284 281 283 285 288 288 286 295 304 306 305 305 305 302 294 290 290 289 285 282 278 269 259 250 247 252 259 264 247 224 225 242 260 285 281 278 267 257 200 215 232 224 223 217 218 211 210 212 209 207 212 215 221 219 221 221 223 220 223 240 191
242 266 284 13 177 327 310 307 310 312 308 299 296 288 289 291 285 284 293 291 282 278 273 272 278 285 289 287 285 285 285 287 296 299 304 306 305 306 306 301 295 288 286 287 283 278 278 279 274 265 256 248 258 264 258 257 276 282 302 292 288 284 278 272 258 226 227 231 227 222 213 213 210 209 211 212 213 215 217 218 223 218 223 222 223 231 195
186 196 181 172 115 16 331 326 325 316 303 301 302 302 297 292 288 284 272 264 271 273 270 268 274 278 278 277 279 283 291 299 301 301 299 302 305 305 302 296 295 292 291 290 303 299 289 293 303 278 271 258 257 264 263 283 278 289 312 309 305 295 285 278 269 262 246 241 235 230 225 217 213 207 203 209 218 221 223 216 219 218 220 223 224 226 195
173 264 280 290 344 323 314 298 308 311 316 314 313 308 307 299 290 283 278 276 279 284 282 282 275 271 277 287 295 297 294 295 297 300 304 305 305 302 300 298 294 290 291 286 275 304 317 320 353 270 248 254 238 245 230 214 281 300 305 330 331 312 297 286 275 263 251 240 241 239 232 223 217 214 207 213 218 222 221 223 217 217 219 220 216 219 199
169 214 1 314 311 296 292 298 299 287 285 289 290 290 299 308 310 303 285 277 275 276 279 275 276 286 288 288 286 285 291 296 301 303 303 305 307 306 301 293 291 290 289 299 329 322 306 16 147 235 256 253 255 262 268 220 239 275 299 331 313 302 299 294 282 273 262 252 237 237 234 228 222 216 212 211 217 221 221 224 221 218 220 220 222 220 227
174 184 206 271 283 285 293 290 285 289 290 287 290 292 294 299 298 294 293 289 281 274 268 270 279 282 281 278 279 282 283 290 294 300 305 304 305 298 295 293 292 305 307 305 306 305 306 333 323 303 283 288 288 275 265 260 209 238 237 227 246 263 263 271 274 270 261 257 251 235 231 230 227 225 222 218 218 218 216 219 221 218 221 224 222 221 219
253 291 311 304 298 303 298 300 303 302 301 298 291 290 292 289 287 290 293 297 303 298 281 273 270 271 273 275 276 279 285 290 294 295 291 294 295 289 288 283 277 267 253 233 279 299 3 87 275 284 286 282 272 271 250 250 236 220 223 239 246 256 262 271 276 274 271 261 249 242 240 234 229 226 226 226 221 218 219 212 214 219 220 224 227 226 220
282 302 301 298 297 296 301 305 309 312 306 298 293 291 291 290 291 286 283 284 287 287 281 276 268 265 269 278 281 284 286 290 289 291 295 295 290 286 286 285 289 292 299 315 318 317 300 284 285 287 294 289 278 314 304 304 297 301 266 247 253 261 260 248 264 270 267 268 266 251 234 227 224 222 223 223 227 223 219 221 218 215 219 222 223 225 223
286 291 298 299 303 306 309 305 304 302 305 305 298 288 281 280 280 282 286 286 283 276 270 266 268 276 287 286 284 282 280 284 289 292 294 291 290 292 289 285 290 300 84 326 256 262 273 263 246 245 281 313 305 140 241 294 280 275 258 256 262 266 266 265 261 269 267 256 251 247 245 233 226 222 215 217 219 222 225 224 223 223 221 221 221 221 220
306 306 305 302 304 304 304 304 302 300 301 297 294 294 293 286 279 275 274 277 278 278 276 278 268 242 253 266 275 278 283 285 287 289 288 285 280 276 277 290 295 292 156 280 290 293 293 299 298 297 40 349 320 19 237 262 261 253 242 234 237 247 261 264 264 263 269 268 257 244 244 240 230 224 221 217 217 217 217 219 221 222 222 220 219 218 219
291 293 299 304 303 310 304 296 292 290 286 290 303 306 297 289 282 278 275 275 276 276 278 277 274 276 278 283 286 285 285 288 290 296 296 294 289 283 271 269 279 295 146 276 285 292 298 299 309 78 101 268 275 284 278 268 252 241 239 231 233 240 257 263 261 254 254 256 259 256 250 245 236 233 227 224 221 218 215 218 221 222 221 221 221 218 216
290 298 299 303 306 299 292 292 292 294 297 298 293 290 291 290 287 283 284 279 276 280 281 280 284 286 287 283 282 283 287 290 291 292 289 289 289 289 301 310 277 280 307 14 296 290 291 299 86 103 313 264 264 263 268 262 253 240 232 224 230 229 236 249 266 273 269 264 260 257 251 248 244 241 239 233 227 227 220 219 221 221 220 221 220 218 216
283 288 294 293 291 295 301 301 299 293 288 286 285 283 281 280 281 281 281 280 280 277 277 278 279 278 279 280 282 281 279 277 276 275 275 277 280 289 302 303 301 296 300 300 284 278 282 102 113 300 278 256 245 245 257 253 257 252 238 226 227 231 238 253 267 273 276 276 268 259 253 250 250 247 243 243 235 231 231 229 229 224 225 223 221 219 218
291 292 291 290 290 289 290 289 288 285 282 279 277 279 282 284 286 286 285 285 283 281 280 279 278 278 278 279 280 283 283 283 280 277 278 282 278 267 254 242 245 252 257 275 290 288 294 301 300 296 280 277 258 269 263 256 249 250 250 238 223 223 226 234 249 268 281 280 273 269 266 263 260 255 248 242 243 242 239 231 230 232 230 226 225 219 221
288 286 285 287 289 292 290 287 286 286 286 282 283 282 280 282 284 285 285 282 279 277 276 275 274 273 273 274 272 270 270 275 279 279 278 283 290 300 301 300 312 334 309 277 264 251 250 256 256 257 257 265 266 275 277 265 255 246 250 245 233 227 230 226 230 248 266 278 279 271 259 251 244 243 245 246 243 239 237 235 233 233 235 230 225 222 218
279 281 285 285 284 285 285 287 286 282 281 287 288 286 288 286 286 282 277 278 279 279 279 278 278 278 276 274 272 275 277 272 270 278 288 293 294 295 296 298 289 270 264 284 287 293 243 201 220 228 248 252 270 293 298 302 295 285 271 265 263 252 238 237 234 237 263 280 285 283 278 268 263 256 248 240 240 240 235 234 235 235 232 231 231 229 227
280 283 283 286 287 286 288 289 286 286 289 291 289 289 288 285 278 279 287 290 290 292 287 282 280 280 281 281 276 276 273 275 273 271 275 281 285 287 290 294 299 305 293 283 288 279 276 244 229 237 240 266 291 297 303 301 303 300 298 285 275 272 262 251 244 236 227 243 267 274 273 272 269 261 256 254 247 240 237 236 236 230 223 233 235 231 227
284 283 288 290 288 289 289 287 288 291 289 286 286 288 286 279 281 286 285 286 289 287 286 288 285 284 283 284 283 285 286 278 279 292 290 287 290 289 284 285 289 284 282 278 272 271 276 276 278 249 245 285 296 300 306 319 313 302 291 285 284 282 282 262 248 235 230 225 229 242 254 258 255 255 255 249 246 243 244 242 241 241 230 230 228 229 230
278 283 286 283 288 290 289 291 291 288 282 281 279 276 274 281 284 280 276 280 283 285 287 287 285 283 286 289 293 284 278 295 304 295 286 282 286 292 291 273 272 272 264 266 270 270 274 276 269 239 235 285 312 319 316 303 298 301 301 300 296 294 289 294 289 288 277 251 241 245 250 250 256 258 254 253 254 253 249 247 245 243 242 239 236 232 232